Savognin, Switzerland 16 day weather forecast

Slopes altitude range -1 m - -1m

Number of lifts: -1 Pistes: -1km

In some cases the lift and piste totals shown are for the ski domain (e.g. Three Valleys) rather than individual resort (e.g. Courchevel)

Overview

The 16 day weather forecast is fully updated 4 times every day.

    • Mon 22 APR 2019
    • Mon 22
    • 0C 2C
    • Tue 23 APR 2019
    • Tue 23
    • 0C 2C
    • Wed 24 APR 2019
    • Wed 24
    • 0C 2C
    • Thu 25 APR 2019
    • Thu 25
    • 0C 2C
    • Fri 26 APR 2019
    • Fri 26
    • -3C 1C
    • Sat 27 APR 2019
    • Sat 27
    • -5C 0C
    • Sun 28 APR 2019
    • Sun 28
    • 0C 4C
    • Mon 29 APR 2019
    • Mon 29
    • 2C 5C
    • Tue 30 APR 2019
    • Tue 30
    • -3C 0C
    • Wed 01 MAY 2019
    • Wed 01
    • -3C 2C
    • Thu 02 MAY 2019
    • Thu 02
    • -4C 3C
    • Fri 03 MAY 2019
    • Fri 03
    • -2C 9C
    • Sat 04 MAY 2019
    • Sat 04
    • 2C 12C
    • Sun 05 MAY 2019
    • Sun 05
    • 5C 12C
    • Mon 06 MAY 2019
    • Mon 06
    • 1C 4C
    • Tue 07 MAY 2019
    • Tue 07
    • -4C 0C

Date:

Time Type 0°C level Temp Chill Snow Cloud Speed Gust Dir Press
3:00 1721m -3°C -3_8 0cm 100% 8mph 9mph 1017mB
6:00 2331m -3°C -3_9 0cm 100% 9mph 12mph 1015mB
9:00 2537m 0°C 0_10 0cm 100% 10mph 11mph 1012mB
12:00 2677m 2°C 2_10 0cm 100% 10mph 11mph 1009mB
15:00 2751m 3°C 3_10 1cm 100% 10mph 11mph 1007mB
18:00 2545m 3°C 3_12 0cm 100% 12mph 15mph 1007mB
21:00 1999m -1°C -1_10 0cm 100% 10mph 13mph 1007mB
0:00 2220m -1°C -1_11 1cm 100% 11mph 15mph 1006mB
3:00 2267m 0°C 0_8 1cm 100% 8mph 11mph 1004mB
6:00 2276m 0°C 0_7 2cm 100% 7mph 9mph 1003mB
9:00 2381m 0°C 0_9 1cm 100% 9mph 11mph 1002mB
12:00 2498m 2°C 2_9 1cm 100% 9mph 11mph 1002mB
15:00 2489m 2°C 2_9 3cm 100% 9mph 12mph 1002mB
18:00 2484m 2°C 2_12 2cm 100% 12mph 15mph 1003mB
21:00 2432m 1°C 1_11 1cm 100% 11mph 14mph 1005mB
0:00 2413m 0°C 0_11 1cm 100% 11mph 15mph 1007mB
3:00 2415m 0°C 0_11 2cm 100% 11mph 14mph 1008mB
6:00 2420m 0°C 0_11 3cm 100% 11mph 15mph 1009mB
9:00 2477m 0°C 0_14 4cm 100% 14mph 19mph 1009mB
12:00 2506m 2°C 2_16 3cm 100% 16mph 21mph 1009mB
15:00 2379m 2°C 2_13 6cm 96% 13mph 16mph 1009mB
18:00 2415m 2°C 2_13 9cm 98% 13mph 18mph 1012mB
21:00 2478m 1°C 1_13 2cm 97% 13mph 18mph 1016mB
0:00 2380m 1°C 1_13 1cm 99% 13mph 18mph 1017mB
3:00 2236m 0°C 0_14 1cm 100% 14mph 18mph 1017mB
6:00 2196m -1°C -1_14 1cm 93% 14mph 20mph 1017mB
9:00 2400m 0°C 0_14 1cm 100% 14mph 19mph 1016mB
12:00 2578m 2°C 2_14 1cm 100% 14mph 19mph 1016mB
15:00 2662m 3°C 3_15 0cm 100% 15mph 20mph 1015mB
18:00 2668m 3°C 3_13 0cm 100% 13mph 18mph 1015mB
21:00 2580m 1°C 1_14 1cm 97% 14mph 19mph 1016mB
0:00 2485m 1°C 1_13 1cm 96% 13mph 18mph 1016mB
3:00 2388m 1°C 1_14 2cm 99% 14mph 19mph 1015mB
6:00 2267m 0°C 0_13 1cm 91% 13mph 17mph 1016mB
9:00 2281m 0°C 0_5 2cm 96% 5mph 6mph 1017mB
12:00 1845m 1°C 1_15 6cm 98% 15mph 19mph 1018mB
15:00 1521m -3°C -3_15 6cm 100% 15mph 18mph 1018mB
18:00 1493m -3°C -3_15 3cm 100% 15mph 18mph 1020mB
21:00 1289m -6°C -6_14 1cm 100% 14mph 18mph 1023mB
0:00 1360m -6°C -6_14 0cm 100% 14mph 19mph 1025mB
3:00 1406m -5°C -5_15 0cm 100% 15mph 19mph 1026mB
6:00 1496m -5°C -5_13 0cm 100% 13mph 15mph 1027mB
9:00 1874m -5°C -5_10 0cm 82% 10mph 11mph 1026mB
12:00 2127m 0°C 0_11 0cm 42% 11mph 12mph 1024mB
15:00 2218m 0°C 0_12 0cm 17% 12mph 14mph 1023mB
18:00 1879m 0°C 0_9 0cm 22% 9mph 10mph 1025mB
21:00 1610m -4°C -4_6 0cm 77% 6mph 7mph 1028mB
0:00 1654m -4°C -4_5 0cm 88% 5mph 6mph 1028mB
3:00 1663m -4°C -4_5 0cm 100% 5mph 5mph 1027mB
6:00 2345m -4°C -4_5 0cm 100% 5mph 5mph 1026mB
9:00 2663m 0°C 0_5 0cm 100% 5mph 5mph 1024mB
12:00 2752m 4°C 4_5 0cm 81% 5mph 5mph 1022mB
15:00 2860m 5°C 5_4 0cm 66% 4mph 5mph 1021mB
18:00 2842m 5°C 5_3 0cm 72% 3mph 4mph 1021mB
21:00 2526m 1°C 1_0 0cm 99% 0mph 1mph 1022mB
0:00 2467m 0°C 0_1 0cm 99% 1mph 2mph 1021mB
3:00 2453m 0°C 0_4 0cm 100% 4mph 5mph 1020mB
6:00 2652m 0°C 0_6 0cm 100% 6mph 7mph 1018mB
9:00 2665m 2°C 2_8 0cm 100% 8mph 9mph 1015mB
12:00 2796m 5°C 5_10 0cm 100% 10mph 10mph 1011mB
15:00 2862m 11°C 11_6 0cm 97% 6mph 8mph 1008mB
18:00 2685m 11°C 11_5 0cm 96% 5mph 7mph 1008mB
21:00 2598m 3°C 3_3 0cm 93% 3mph 4mph 1009mB
0:00 2429m 2°C 2_5 0cm 95% 5mph 7mph 1008mB
3:00 2001m 1°C 1_8 6cm 100% 8mph 12mph 1007mB
6:00 1572m -2°C -2_9 5cm 100% 9mph 13mph 1008mB
9:00 1658m -3°C -3_8 2cm 97% 8mph 11mph 1008mB
12:00 1847m 0°C 0_7 1cm 89% 7mph 9mph 1008mB
15:00 1827m 1°C 1_8 1cm 62% 8mph 9mph 1008mB
18:00 1638m 1°C 1_6 1cm 81% 6mph 8mph 1010mB
21:00 1392m -3°C -3_4 1cm 90% 4mph 5mph 1014mB
0:00 1270m -4°C -4_2 1cm 84% 2mph 3mph 1015mB
3:00 1072m -5°C -5_1 0cm 52% 1mph 2mph 1016mB
6:00 1368m -6°C -6_1 0cm 51% 1mph 1mph 1015mB
9:00 1756m -3°C -3_5 0cm 40% 5mph 5mph 1013mB
12:00 1961m 2°C 2_7 1cm 51% 7mph 6mph 1012mB
15:00 1991m 2°C 2_8 1cm 64% 8mph 8mph 1011mB
18:00 1747m 2°C 2_5 2cm 56% 5mph 6mph 1012mB
21:00 1267m -4°C -4_1 0cm 15% 1mph 2mph 1015mB
0:00 1216m -5°C -5_4 0cm 25% 4mph 5mph 1014mB
Afternoon 0.192708mm 0.3125 1994m 3°C 3_8 2cm 86% 8mph 10mph 1009mB
Morning 0.114583mm 0.4375 1555m -2°C -2_7 0cm 26% 7mph 8mph 1013mB
Afternoon 0mm 0 2591m 9°C 9_8 0cm 48% 8mph 10mph 1008mB
Morning 0.00520833mm 0.0625 2407m 2°C 2_11 0cm 76% 11mph 21mph 1009mB
Afternoon 0mm 0 2866m 12°C 12_11 0cm 93% 11mph 15mph 1003mB
Morning 0.0885417mm 0 3094m 5°C 5_11 0cm 87% 11mph 21mph 1003mB
Afternoon 0.161458mm 1.625 3037m 12°C 12_9 0cm 69% 9mph 13mph 999mB
Morning 2.36458mm 3.75 2203m 2°C 2_6 0cm 100% 6mph 10mph 999mB
Afternoon 0.765625mm 0.0625 2251m 4°C 4_8 6cm 100% 8mph 11mph 1002mB
Morning 0.09375mm 0.625 1519m -2°C -2_7 5cm 95% 7mph 12mph 1011mB
Afternoon 0.1875mm 0.125 1765m 0°C 0_9 2cm 100% 9mph 11mph 1015mB
Morning 0.0416667mm 0.125 803m -7°C -7_0 1cm 60% 0mph 1mph 1022mB

16 day outlook at a glance

Forecast issued: 22/04/2019 08:46:46

Chat

Your comments and questions. In a resort? Let us know what it's like!


Characters left 250

For terms and conditions see Readers Comments on the Cookie and privacy policy page.